Location: Hains Lake
(37.8540°N, 99.8578°W)
Time: 05:12:04
(UTC+00:00)

Vanguard 2 Rocket - Pass Details

Date: 21 April 2021
Orbit: 553 x 3326 km, 32.9° (Epoch: 07 May)

Event Time Altitude Azimuth Distance (km) Brightness Sun altitude
Rises 03:43:07 0° 279° (W) 6,815 12.2 -25.5°
Reaches altitude 10° 03:51:04 10° 260° (W) 5,237 11.2 -26.7°
Maximum altitude 03:57:34 14° 234° (SW) 4,288 10.4 -27.6°
Drops below altitude 10° 04:02:53 10° 205° (SSW) 4,086 10.0 -28.4°
Enters shadow 04:04:00 - 199° (SSW) 4,135 10.0 -28.5°
Sets 04:07:41 0° 182° (S) 4,516 - -29.0°
